Location: Buchloe
(48.0161°N, 10.7316°E)
Time: 07:55:06
(UTC+02:00)

ISS - Pass Details

Date: 08 July 2025
Orbit: 413 x 417 km, 51.6° (Epoch: 16 July)

Event Time Altitude Azimuth Distance (km) Brightness Sun altitude
Rises 22:46:48 0° 231° (SW) 2,339 0.0 -11.5°
Reaches altitude 10° 22:48:55 10° 226° (SW) 1,481 -1.1 -11.7°
Maximum altitude 22:52:09 50° 149° (SSE) 533 -3.7 -12.0°
Drops below altitude 10° 22:55:24 10° 73° (ENE) 1,490 -1.1 -12.3°
Sets 22:57:32 0° 68° (ENE) 2,357 -0.1 -12.5°
